Terminal Aerodrome Forecast
Issued by NWS Missoula, MT

Home | Current Version | Previous Version | Text Only | Print | Product List | Glossary On
Versions: 1 2 3 4 5 6 7 8 9 10 11 12 13 14 15
000
FTUS45 KMSO 301120
TAFMSO
TAF
KMSO 301120Z 3012/0112 VRB03KT P6SM -SHRA FEW030 OVC045
     FM301600 28008KT P6SM VCSH BKN080
     FM302300 28012KT P6SM VCSH BKN040 OVC080=

USA.gov is the U.S. government's official web portal to all federal, state and local government web resources and services.